Date String (YYYY-MM-DD hh:mm:ss) UTC,Instrument flags,Ambient pressure (hPa),Sample flow (lpm),Bypass flow (lpm),Sample temperature (°C),Ambient temperature (°C),ASC tube jacket temperature (°C),LED temperature (°C),Box temperature (°C),Sample RH (%),Span deviation,Mass concentration (μg/m³),Mass concentration (μg/m³),Mass concentration (μg/m³)
DateTimeUTC,F1_M11,P_M11,Q1_M11,Q2_M11,T1_M11,T2_M11,T3_M11,T4_M11,T5_M11,U1_M11,ZSPAN_M11,X2_M11,X0_M11,X1_M11
2021-12-29 11:00:00,,0811.2,5.01,0.00,22.5,22.0,00.0,31.6,24.2,05.9,0000.0,0003.38,0013.32,0001.30
2021-12-29 11:01:00,,0811.3,5.00,0.00,22.6,22.7,00.0,31.6,24.4,05.9,0000.0,0003.36,0013.26,0001.31
2021-12-29 11:02:00,,0811.3,5.00,0.00,22.7,23.3,00.0,31.6,24.6,05.8,0000.0,0003.31,0012.73,0001.29
2021-12-29 11:03:00,,0811.3,5.00,0.00,22.8,23.2,00.0,31.6,24.7,05.9,0000.0,0003.32,0012.69,0001.28
2021-12-29 11:04:00,,0811.3,5.01,0.00,22.8,22.9,00.0,31.7,24.6,05.9,0000.0,0003.31,0012.78,0001.27
2021-12-29 11:05:00,,0811.3,4.98,0.00,22.8,22.7,00.0,31.7,24.5,05.9,0000.0,0003.32,0013.09,0001.27
2021-12-29 11:06:00,,0811.3,5.01,0.00,22.8,22.5,00.0,31.7,24.5,05.9,0000.0,0003.26,0012.36,0001.26
2021-12-29 11:07:00,,0811.3,4.99,0.00,22.7,22.3,00.0,31.7,24.4,05.9,0000.0,0003.25,0012.13,0001.26
2021-12-29 11:08:00,,0811.3,5.00,0.00,22.7,22.2,00.0,31.7,24.3,05.9,0000.0,0003.26,0012.38,0001.27
2021-12-29 11:09:00,,0811.3,5.00,0.00,22.7,22.1,00.0,31.7,24.3,06.0,0000.0,0003.27,0012.32,0001.27
2021-12-29 11:10:00,,0811.2,5.01,0.00,22.6,21.9,00.0,31.6,24.3,06.0,0000.0,0003.27,0012.79,0001.27
2021-12-29 11:11:00,,0811.2,5.01,0.00,22.6,21.8,00.0,31.6,24.2,06.0,0000.0,0003.21,0012.22,0001.27
2021-12-29 11:12:00,,0811.2,4.99,0.00,22.6,21.8,00.0,31.6,24.2,06.0,0000.0,0003.23,0011.93,0001.28
2021-12-29 11:13:00,,0811.2,5.01,0.00,22.6,21.7,00.0,31.6,24.1,06.1,0000.0,0003.26,0012.15,0001.28
2021-12-29 11:14:00,,0811.2,5.01,0.00,22.5,21.6,00.0,31.6,24.1,06.1,0000.0,0003.26,0012.38,0001.29
2021-12-29 11:15:00,,0811.3,4.99,0.00,22.5,21.7,00.0,31.6,24.1,06.1,0000.0,0003.26,0012.06,0001.30
2021-12-29 11:16:00,,0811.4,4.99,0.00,22.6,22.4,00.0,31.6,24.3,06.1,0000.0,0003.25,0011.75,0001.30
2021-12-29 11:17:00,,0811.4,5.01,0.00,22.7,23.1,00.0,31.6,24.5,06.0,0000.0,0003.24,0011.69,0001.30
2021-12-29 11:18:00,,0811.4,5.01,0.00,22.8,23.6,00.0,31.7,24.7,06.0,0000.0,0003.24,0011.29,0001.30
2021-12-29 11:19:00,,0811.4,5.00,0.00,22.9,23.4,00.0,31.7,24.8,06.0,0000.0,0003.30,0011.64,0001.29
2021-12-29 11:20:00,,0811.5,4.99,0.00,22.9,23.1,00.0,31.7,24.7,06.0,0000.0,0003.27,0011.66,0001.30
2021-12-29 11:21:00,,0811.5,5.01,0.00,22.8,22.8,00.0,31.7,24.5,06.1,0000.0,0003.29,0011.00,0001.31
2021-12-29 11:22:00,,0811.5,5.00,0.00,22.8,22.6,00.0,31.7,24.4,06.1,0000.0,0003.26,0011.70,0001.31
2021-12-29 11:23:00,,0811.5,4.99,0.00,22.7,22.3,00.0,31.7,24.3,06.1,0000.0,0003.24,0012.47,0001.30
2021-12-29 11:24:00,,0811.6,5.01,0.00,22.7,22.1,00.0,31.7,24.2,06.1,0000.0,0003.19,0013.16,0001.31
2021-12-29 11:25:00,,0811.5,4.97,0.00,22.6,21.9,00.0,31.7,24.1,06.1,0000.0,0003.15,0012.55,0001.33
2021-12-29 11:26:00,,0811.6,5.00,0.00,22.6,21.8,00.0,31.7,24.1,06.1,0000.0,0003.18,0012.68,0001.34
2021-12-29 11:27:00,,0811.5,4.99,0.00,22.5,21.7,00.0,31.6,24.0,06.2,0000.0,0003.19,0012.64,0001.35
2021-12-29 11:28:00,,0811.5,4.99,0.00,22.5,21.6,00.0,31.6,24.0,06.1,0000.0,0003.23,0012.77,0001.35
2021-12-29 11:29:00,,0811.5,5.01,0.00,22.4,21.5,00.0,31.6,23.9,06.1,0000.0,0003.22,0012.92,0001.34
2021-12-29 11:30:00,,0811.5,5.00,0.00,22.3,21.4,00.0,31.6,23.8,06.1,0000.0,0003.19,0014.18,0001.34
2021-12-29 11:31:00,,0811.4,4.99,0.00,22.4,21.8,00.0,31.6,24.0,06.1,0000.0,0003.22,0014.30,0001.35
2021-12-29 11:32:00,,0811.4,5.01,0.00,22.5,22.5,00.0,31.6,24.2,06.1,0000.0,0003.20,0014.40,0001.35
2021-12-29 11:33:00,,0811.4,5.00,0.00,22.6,23.2,00.0,31.6,24.5,06.1,0000.0,0003.25,0014.72,0001.36
2021-12-29 11:34:00,,0811.4,5.00,0.00,22.7,23.4,00.0,31.6,24.6,06.0,0000.0,0003.27,0014.07,0001.36
2021-12-29 11:35:00,,0811.5,4.99,0.00,22.8,23.1,00.0,31.7,24.6,06.1,0000.0,0003.28,0013.41,0001.36
2021-12-29 11:36:00,,0811.5,4.99,0.00,22.7,22.8,00.0,31.7,24.4,06.1,0000.0,0003.29,0013.56,0001.35
2021-12-29 11:37:00,,0811.5,5.00,0.00,22.7,22.5,00.0,31.6,24.3,06.1,0000.0,0003.25,0013.68,0001.34
2021-12-29 11:38:00,,0811.6,4.99,0.00,22.6,22.3,00.0,31.6,24.2,06.1,0000.0,0003.23,0013.99,0001.33
2021-12-29 11:39:00,,0811.5,5.00,0.00,22.6,22.1,00.0,31.6,24.1,06.1,0000.0,0003.22,0013.86,0001.34
2021-12-29 11:40:00,,0811.6,5.00,0.00,22.5,22.0,00.0,31.6,24.1,06.2,0000.0,0003.22,0013.72,0001.34
2021-12-29 11:41:00,,0811.5,4.99,0.00,22.5,21.8,00.0,31.6,24.0,06.2,0000.0,0003.22,0012.42,0001.35
2021-12-29 11:42:00,,0811.6,5.01,0.00,22.4,21.7,00.0,31.6,23.9,06.2,0000.0,0003.19,0011.94,0001.34
2021-12-29 11:43:00,,0811.6,4.99,0.00,22.4,21.6,00.0,31.5,23.9,06.2,0000.0,0003.18,0012.18,0001.33
2021-12-29 11:44:00,,0811.6,5.00,0.00,22.3,21.5,00.0,31.5,23.8,06.2,0000.0,0003.13,0011.47,0001.34
2021-12-29 11:45:00,,0811.6,5.01,0.00,22.2,21.5,00.0,31.5,23.8,06.2,0000.0,0003.14,0011.84,0001.34
2021-12-29 11:46:00,,0811.6,4.99,0.00,22.3,21.9,00.0,31.5,23.9,06.2,0000.0,0003.16,0011.80,0001.34
2021-12-29 11:47:00,,0811.6,5.01,0.00,22.4,22.6,00.0,31.5,24.2,06.1,0000.0,0003.21,0012.49,0001.33
2021-12-29 11:48:00,,0811.6,5.00,0.00,22.6,23.3,00.0,31.6,24.5,06.1,0000.0,0003.24,0012.98,0001.32
2021-12-29 11:49:00,,0811.6,5.00,0.00,22.7,23.4,00.0,31.6,24.6,06.1,0000.0,0003.22,0013.09,0001.31
2021-12-29 11:50:00,,0811.6,5.00,0.00,22.7,23.1,00.0,31.6,24.5,06.1,0000.0,0003.22,0014.09,0001.31
2021-12-29 11:51:00,,0811.7,4.99,0.00,22.7,22.8,00.0,31.6,24.4,06.0,0000.0,0003.24,0014.24,0001.31
2021-12-29 11:52:00,,0811.7,5.01,0.00,22.6,22.5,00.0,31.6,24.3,06.1,0000.0,0003.27,0014.10,0001.31
2021-12-29 11:53:00,,0811.7,4.99,0.00,22.6,22.3,00.0,31.6,24.2,06.1,0000.0,0003.26,0013.73,0001.30
2021-12-29 11:54:00,,0811.7,5.01,0.00,22.5,22.1,00.0,31.6,24.1,06.1,0000.0,0003.29,0013.38,0001.30
2021-12-29 11:55:00,,0811.7,5.00,0.00,22.5,21.9,00.0,31.6,24.1,06.1,0000.0,0003.30,0013.33,0001.30
2021-12-29 11:56:00,,0811.7,4.99,0.00,22.5,21.8,00.0,31.5,24.0,06.1,0000.0,0003.31,0012.86,0001.30
2021-12-29 11:57:00,,0811.7,5.01,0.00,22.4,21.7,00.0,31.5,23.9,06.1,0000.0,0003.26,0013.77,0001.29
2021-12-29 11:58:00,,0811.7,5.00,0.00,22.4,21.6,00.0,31.5,23.9,06.2,0000.0,0003.24,0013.85,0001.29
2021-12-29 11:59:00,,0811.6,5.00,0.00,22.3,21.5,00.0,31.5,23.8,06.2,0000.0,0003.24,0014.57,0001.31
